Hourly Weather Roundup
Issued by NWS Central Illinois

Home | Current Version | Previous Version | Text Only | Print | Product List | Glossary On
Versions: 1 2 3 4 5 6 7 8 9 10 11 12 13 14 15 16 17 18 19 20 21 22 23 24 25 26 27 28 29 30 31 32 33 34 35 36 37 38 39 40 41 42 43 44 45 46 47 48 49 50
000
NZUS43 KILX 291710
HWRILX

AREA WEATHER ROUNDUP
NATIONAL WEATHER SERVICE, LINCOLN IL
1200 PM CDT FRI AUG 29 2014


CITY           SKY/WX    TMP DP  RH WIND       PRES   REMARKS
BLOOMINGTON    CLOUDY    79  72  79 S9        29.99F HX  82
CHAMPAIGN      PTSUNNY   82  74  76 SE9       30.00F HX  88
DECATUR        PTSUNNY   83  73  72 SW7       29.98F HX  89
FLORA          SUNNY     85  73  68 SE6       29.99S HX  92
GALESBURG      PTSUNNY   82  73  74 S8        29.93F HX  86
JACKSONVILLE   SUNNY     88  71  57 S8        29.95F HX  93
LACON          PTSUNNY   76  71  83 S5        29.94F
LAWRENCEVILLE  MOSUNNY   87  76  69 SE7       29.99F HX  97
LITCHFIELD     MOSUNNY   83  75  77 S7        29.97F HX  91
$$


CITY           SKY/WX    TMP DP  RH WIND       PRES   REMARKS
LINCOLN        MOSUNNY   83  73  71 S6        29.94F HX  89
MACOMB         SUNNY     83  72  70 S9        29.95F HX  88
MATTOON        PTSUNNY   83  74  74 S5        29.99F HX  89
MT CARMEL AP   MOSUNNY   90  77  66 SE7       29.99F HX 102
OLNEY-NOBLE AP MOSUNNY   86  75  70 CALM      29.99F HX  95
PARIS          MOSUNNY   84  75  75 SE5       30.01F HX  92
PEORIA         MOSUNNY   82  72  71 S12       29.95F HX  87
PONTIAC        CLOUDY    81  73  78 S7        29.98F HX  85
RANTOUL        CLOUDY    80  72  78 S7        30.01F HX  83
ROBINSON       MOSUNNY   88  76  67 S7        30.01S HX  98
SPRINGFIELD    SUNNY     84  73  69 SW8       29.96F HX  90
TAYLORVILLE    PTSUNNY   81  73  78 SW6       29.97F HX  85
$$

...REGIONAL REPORTS...


CITY           SKY/WX    TMP DP  RH WIND       PRES   REMARKS
CHICAGO O`HARE CLOUDY    82  68  62 S9        29.96F HX  85
KANKAKEE       CLOUDY    80  74  80 S12       30.00F HX  85
MOLINE         SUNNY     83  72  69 S12G17    29.90F HX  88
MOUNT VERNON   MOSUNNY   88  73  62 S8        29.99F HX  96
PITTSFIELD     SUNNY     87  68  54 S8        29.94F HX  90
QUINCY         SUNNY     86  68  54 S13       29.92F HX  89
ROCKFORD       CLOUDY    78  70  76 S16       29.95F HX  80
$$


CITY           SKY/WX    TMP DP  RH WIND       PRES   REMARKS
BURLINGTON     SUNNY     84  72  67 S10       29.90F HX  89
CEDAR RAPIDS   SUNNY     82  72  71 S8        29.86F HX  87
DES MOINES     PTSUNNY   84  70  62 S16       29.82F HX  88
KIRKSVILLE     SUNNY     85  70  60 S13       29.89F HX  89
OTTUMWA        SUNNY     83  70  64 S9        29.85F HX  87
ST LOUIS       PTSUNNY   89  69  51 SW8       29.94F HX  93
$$


CITY           SKY/WX    TMP DP  RH WIND       PRES   REMARKS
TERRE HAUTE    SUNNY     84  74  71 VRB7      30.01F HX  91
EVANSVILLE     MOSUNNY   86  74  67 SE3       30.00F HX  94
INDIANAPOLIS   CLOUDY    73  66  78 E6        30.04F
LAFAYETTE      CLOUDY    76  68  76 S7        30.02F
MADISON        MOSUNNY   80  69  69 S15       29.91F HX  83
MILWAUKEE      PTSUNNY   73  69  87 S12       29.95F
$$





USA.gov is the U.S. government's official web portal to all federal, state and local government web resources and services.